Commit Graph

6073 Commits

Author SHA1 Message Date
David Rose c0c94ad612 one dialog at a time in p3dCert 2009-12-15 00:28:55 +00:00
David Rose 6d07d897a8 paste-buffer error 2009-12-15 00:28:13 +00:00
David Rose 6758007d8a report p3dinstance startup 2009-12-14 23:44:56 +00:00
David Rose af5efe447e support older plugins that don't set p3d_offset 2009-12-14 23:13:10 +00:00
David Rose 3aff00973c gui_app not a good idea to default 2009-12-13 23:04:24 +00:00
David Rose 716ac1aa10 fix splash_img vs. noplugin_img 2009-12-13 22:10:08 +00:00
rdb d3b0048cd7 Let's remove pyOpenCL for now until we really need it. it gives me a headache 2009-12-13 11:14:44 +00:00
David Rose ca5f030cc1 TTF extensions are often capitalized 2009-12-13 07:21:08 +00:00
David Rose 5d8b61ca86 PGFrameStyle::T_texture_border 2009-12-13 07:20:23 +00:00
David Rose 08a4e29993 allow empty *_img to mean default 2009-12-12 22:16:21 +00:00
rdb 9e06342b65 Sheesh, we need to add all the PIL modules separately 2009-12-12 20:27:44 +00:00
rdb b7663f1630 Locate frameworks on the system root correctly 2009-12-12 20:27:17 +00:00
David Rose aaa4c74528 add -R to support sysroot 2009-12-12 19:30:51 +00:00
David Rose 779d246bad oops, leftover typo 2009-12-12 18:15:30 +00:00
rdb 81cc08c096 Fix p3dembed bug with incorrect multifile payload offset, and remove some debug info 2009-12-12 14:02:48 +00:00
rdb ddf7d96f6c Support for embedding tokens, and fix a bug with instances placed wrongly 2009-12-12 12:13:50 +00:00
rdb 7372ade4ef Add p3dembed to coreapi.pdef, and add thirdparty packages sqlite, numpy, pygame, twisted, PIL, pyOpenGL, pyOpenCL, httplib2, pyCURL 2009-12-12 12:12:07 +00:00
David Rose 2eeed7bbd6 more mac app focus issues 2009-12-12 01:47:59 +00:00
Darren Ranalli 8795e86f45 undo previous checkin 2009-12-12 00:38:02 +00:00
Darren Ranalli e2045c10a1 don't use new interface until build server catches up 2009-12-11 23:38:57 +00:00
Darren Ranalli 25ea239df0 added legacy lifter support 2009-12-11 22:58:00 +00:00
David Rose d6539855a1 avoid obscure crash 2009-12-11 20:33:48 +00:00
David Rose c5c7eae394 whups 2009-12-11 19:26:29 +00:00
rdb 0f723e4cb8 Forgot to check in this file 2009-12-11 18:08:25 +00:00
David Rose 5201b9bfcd use lipo to support universal binaries (mostly) automatically 2009-12-11 00:57:48 +00:00
David Rose 086e53a453 onpluginfail in more cases 2009-12-10 23:38:40 +00:00
David Rose 3e82b3d163 compilation issues on mac 2009-12-09 19:32:12 +00:00
David Rose 0537384149 unknown download size, windows case 2009-12-09 19:14:15 +00:00
David Rose ff93698ce6 have to limit p3d_plugin to C API, which means no default arguments allowed 2009-12-09 18:55:14 +00:00
David Rose 157a072acb unknown download size, linux support 2009-12-09 18:40:48 +00:00
rdb 51afeb20ac Add p3dembed and add support for offsetted p3d payload 2009-12-09 18:21:10 +00:00
David Rose a7ac5345f4 support unknown-sized downloads 2009-12-09 15:37:48 +00:00
David Rose 8495118c2e add encodings 2009-12-09 00:01:36 +00:00
David Rose f425a6e8bd add morepy 2009-12-08 23:32:12 +00:00
Darren Ranalli 7747bab024 fixed leaked event logout crash 2009-12-08 01:55:28 +00:00
Gyedo Jeon e47bc0df72 Fixed a toontown problem caused by new LE development 2009-12-08 01:55:26 +00:00
David Rose f4da45091a whoops 2009-12-08 01:46:27 +00:00
David Rose 87b54a32b6 support packp3d -p 2009-12-08 01:32:58 +00:00
David Rose 3f2f1f4877 fix splash window when crash at startup 2009-12-08 00:26:42 +00:00
David Rose 86c892d3e8 expose some more windows vars 2009-12-08 00:26:21 +00:00
Darren Ranalli 166f966441 fixed TT shadowTraverser crash 2009-12-08 00:11:20 +00:00
David Rose e90652e89e move finalExitCallbacks to CMU implementation 2009-12-07 20:21:01 +00:00
David Rose daadba7e4e fix crash when querying game log before starting 2009-12-07 18:58:59 +00:00
David Rose aac9cb1e82 respect notify-timestamp 2009-12-07 16:49:23 +00:00
David Rose 3b83a97989 add -e and -n options 2009-12-06 02:19:17 +00:00
David Rose 6df61edb83 threaded lost-connection 2009-12-05 22:58:01 +00:00
David Rose e4305cf954 proper respect for locking with Python GIL, when true threads are enabled 2009-12-05 20:40:26 +00:00
David Rose 62aaf94cb0 frameSync 2009-12-05 19:39:45 +00:00
David Rose b0993e4a53 fix some event name collisions with multiple CR's, tag some more methods BLOCKING 2009-12-05 19:39:13 +00:00
rdb db27eec59b Allow people to change the installation directory 2009-12-05 16:11:57 +00:00
David Rose 72da0ee5f1 clean up ConnectionRepository on exit 2009-12-05 07:17:53 +00:00
David Rose 0782c4c2e9 query game log even after application shuts down 2009-12-04 22:40:04 +00:00
David Rose 58dfbe0e9d better fallback for version 2009-12-04 16:52:59 +00:00
Arkady Trestman a8b76b9599 now handling setting by reference 2009-12-03 23:55:30 +00:00
Arkady Trestman 9c73a2344d additional error checking to prevent accidental range over-reference 2009-12-03 23:53:53 +00:00
David Rose b2d1bfa624 fail over from bogus mirror more gracefully 2009-12-03 23:24:29 +00:00
David Rose eb5acbd9b4 fix failure during redownload attempt 2009-12-03 23:03:38 +00:00
David Rose 1f4cbbb0e8 defer packageDir until it is known 2009-12-03 20:49:22 +00:00
David Rose 8f83de634f remove miles 2009-12-03 16:27:01 +00:00
rdb 1cbec3eef0 Include zlib1.dll 2009-12-02 17:37:30 +00:00
rdb 97982327f1 Forward XAUTHORITY variable to the plugin environment - this fixes a plugin issue in some cases on Unix 2009-12-02 17:03:24 +00:00
David Rose 0f7e4c7344 freshen root-level contents.xml too 2009-12-02 16:03:22 +00:00
David Rose 9f13f5334c fix additional problem with -r 2009-12-02 15:51:42 +00:00
David Rose f28a01b52b fix extra kill message 2009-12-02 15:32:18 +00:00
David Rose 8bcb52efdd fix super-mirror issue 2009-12-02 15:31:52 +00:00
rdb 8d3b22e3cc Add /usr/local/lib to search path, and /usr/PCBSD/local/lib on PC-BSD 2009-12-02 12:02:21 +00:00
rdb eaaff62ba5 Build pmerge.p3d too 2009-12-02 11:42:34 +00:00
David Rose 6be0f6bc28 oops, pdb 2009-12-02 04:05:05 +00:00
David Rose c5638bc1fd support disney-style Cg file 2009-12-02 03:34:54 +00:00
David Rose 61b92af51b missing import 2009-12-02 02:40:20 +00:00
David Rose f4ed61f659 support listening on a specific interface 2009-12-01 01:34:02 +00:00
David Rose e69b127292 build issue 2009-11-30 22:34:08 +00:00
Abhishek Nath a36f345131 Useful function to search through Distributed Object collection by class type 2009-11-30 21:26:10 +00:00
David Rose 590f95ed11 fix bug with conflicting prc filenames 2009-11-26 20:00:57 +00:00
rdb f872dfbfce "import *" shouldn't import __file__ or __name__ 2009-11-26 18:00:14 +00:00
rdb e6e80f62c6 Allow panda3d.dtoolconfig imports 2009-11-26 17:30:19 +00:00
David Rose e34cc4bb76 don't compress wav files by default 2009-11-25 23:43:38 +00:00
rdb b3d854e397 Some fixes 2009-11-25 14:06:26 +00:00
David Rose 90bc292c07 fix bug with alt_host 2009-11-25 01:34:03 +00:00
David Rose cdf186af65 fix bug in pmerge 2009-11-25 00:46:10 +00:00
David Rose 902804f39e dos2unix 2009-11-24 23:38:11 +00:00
David Rose ea40f600bb fix problems with packp3d -r 2009-11-24 23:37:21 +00:00
Darren Ranalli e6424f0577 prevent garbage leak 2009-11-24 02:20:05 +00:00
David Rose df2a0b0025 getModelPath() for server too 2009-11-24 01:47:13 +00:00
David Rose 863662c542 enable p3dplugin.log by default too 2009-11-24 00:30:06 +00:00
David Rose f9e90d497d exclude two system dylibs 2009-11-24 00:17:52 +00:00
David Rose e691d3c80f minor imports problem 2009-11-23 22:44:42 +00:00
David Rose eaa2163cb0 fix problem with non-unique task names 2009-11-23 21:07:42 +00:00
David Rose c08296e27f createReady() is better as a method than a global event 2009-11-23 20:55:09 +00:00
David Rose cb0fd70fe6 osx build issues 2009-11-23 20:17:36 +00:00
David Rose d3bc7e497d remove annoying error message for now 2009-11-23 19:20:44 +00:00
David Rose d4679444ef minor distributed object fixes 2009-11-22 19:32:32 +00:00
David Rose 1d1eafcb70 typo 2009-11-22 00:14:55 +00:00
David Rose 7544008e72 FileDescription is sometimes displayed as the only text for the contents 2009-11-21 23:27:08 +00:00
David Rose 2d32638895 onPluginFail for IE 2009-11-21 23:16:03 +00:00
David Rose 2b004124f9 protect better against malicious directory naming 2009-11-21 22:04:38 +00:00
David Rose 66f88cd348 ensure executable bit is set 2009-11-21 20:57:28 +00:00
David Rose 8763e10c2f whoops, unintended commit again 2009-11-21 20:47:58 +00:00
David Rose 09483f7133 don't needlessly redownload contents.xml 2009-11-21 20:47:07 +00:00
David Rose 82f49bb352 update.rdf files 2009-11-21 19:06:07 +00:00
David Rose a0c7fe7a81 minor comment fix 2009-11-21 19:05:40 +00:00
David Rose f5e2e89d18 onPluginFail 2009-11-21 17:37:09 +00:00
rdb d60e61993e This should fix the eggcacher/packpanda problems on Windows, I think. 2009-11-21 15:45:21 +00:00
rdb d2576e10a1 Er, why expose libpandaskel through the 'panda3d' package? 2009-11-21 12:02:43 +00:00
David Rose 643715788e build on mac 2009-11-21 01:32:10 +00:00
David Rose fc10c7c5a0 further interface generalizations 2009-11-21 01:20:55 +00:00
Darren Ranalli ac091ce40e HTMLStringToElements adds comments to force tag closers 2009-11-21 01:18:25 +00:00
Darren Ranalli 78476db3cb added HTMLStringToElements and str2elements 2009-11-20 22:43:35 +00:00
Darren Ranalli be6d143399 copied from recaptcha-client-1.0.5 2009-11-20 22:42:29 +00:00
David Rose 381c544e7f rmtree first 2009-11-20 19:02:27 +00:00
David Rose 6785b6abcc chmod 2009-11-20 15:21:26 +00:00
David Rose a6a0de068e xpi output 2009-11-20 02:10:37 +00:00
David Rose daf9c87a05 Description.plist 2009-11-20 02:05:13 +00:00
Arkady Trestman 15cc76a5fc a better way to select 2009-11-20 01:50:41 +00:00
David Rose 426f96e66b alt_host affects log name, prc name, start dir 2009-11-20 00:43:30 +00:00
David Rose 1972536934 revert unintended checkin 2009-11-20 00:24:49 +00:00
David Rose a725d42db1 splash_img shouldn't also apply to buttons 2009-11-20 00:05:04 +00:00
David Rose 4631711957 support host_dir 2009-11-19 23:59:04 +00:00
Darren Ranalli 95bff4b0e0 removed unused variable 2009-11-19 23:47:24 +00:00
David Rose 0bee8b9fbf protect against objects that have no str() representation 2009-11-19 23:34:29 +00:00
Darren Ranalli 3b0682d19f head and body tags of landing page exposed as ElementTree.Elements 2009-11-19 22:43:21 +00:00
David Rose 43bfae1dd1 bgcolor etc, for osx 2009-11-19 22:03:03 +00:00
David Rose 2fa9ac5c76 bgcolor, etc for win32 2009-11-19 21:48:49 +00:00
David Rose 902ab1111a bgcolor, fgcolor, barcolor 2009-11-19 21:37:52 +00:00
David Rose eda65fe33f fix initial display of default image 2009-11-19 20:41:14 +00:00
David Rose abbbb21a8e some more explicit control over connection parameters 2009-11-19 02:37:09 +00:00
David Rose 6a5dcc40e8 minor comment update 2009-11-18 22:12:02 +00:00
David Rose a749fd47cd increment P3D_API_VERSION to 9 2009-11-18 21:16:09 +00:00
David Rose 8c3d9c16f9 explicit window_handle type, for mac 2009-11-18 19:50:17 +00:00
David Rose d0d2ac4fa0 explicit window_handle type for win32 2009-11-18 19:36:45 +00:00
David Rose 21aad12650 move towards explicit handle type in P3D_window_handle 2009-11-18 19:26:39 +00:00
David Rose 3ea273ddb6 compile against xulrunner 1.9.0 also 2009-11-18 18:07:29 +00:00
David Rose f582d8f950 add forceYield(), considerYield() at this level too 2009-11-18 15:20:48 +00:00
David Rose 2e725272ab case inconsistency: Plug-in -> Plug-In 2009-11-18 15:11:08 +00:00
rdb d0c833d2ea Provide libp3vision as separate package ('vision') 2009-11-16 13:21:00 +00:00
rdb e9c52233f8 Allow "from panda3d.vision" imports (from libp3vision) 2009-11-16 13:14:22 +00:00
rdb a6d3da5eb9 Much better solution for Python 2.4 + 2.5 ;-) 2009-11-16 08:12:16 +00:00
rdb 7ee08a75a5 int## -> int##_t to fix compile errors with Xulrunner SDK 1.9.1 2009-11-15 09:54:25 +00:00
David Rose 0e51a88e46 fixes 2009-11-14 17:33:18 +00:00
David Rose 6e8cedfcfb fix issues with active_img 2009-11-13 18:09:55 +00:00
David Rose 87f57dd710 fix onwindowattach/detach 2009-11-13 01:22:05 +00:00
Arkady Trestman 447684ec4e clearing sceneGraphUI panel after File->New 2009-11-11 21:10:43 +00:00
Bei Yang 067fc6219d Shouldn't need samples to build an install. 2009-11-11 18:24:11 +00:00
Arkady Trestman ca32727cc5 fixed a problem with hierarchy loading from file 2009-11-11 02:37:44 +00:00
David Rose 3c05002019 don't remove bundle, we might need it 2009-11-10 22:30:11 +00:00
David Rose a927aedf52 onwindowattach, onwindowdetach 2009-11-10 22:28:46 +00:00
David Rose b4df14be69 typo 2009-11-10 22:27:57 +00:00
Arkady Trestman bc84a2c412 fixed a problem with adding a pandaObject tree branch when adding a new pandaobject 2009-11-10 21:11:39 +00:00
David Rose 29c61ac510 fix bug causing server to stop listening 2009-11-10 13:17:22 +00:00
Gyedo Jeon 8c3ebf7a52 Added custom hotkey support 2009-11-10 00:57:31 +00:00